Hourly Data Report for December 13, 2019

All times are specified in Local Standard Time (LST). Add 1 hour to adjust for Daylight Saving Time where and when it is observed.

VICTORIA UNIVERSITY CS
BRITISH COLUMBIA
Current Station Operator: ECCC - MSC

48°27'25.200" N
123°18'16.600" W
60.10 m
1018598
71783
WYJ

Download Data

Hourly Data (December 2019)
Hourly Data Report for December 13, 2019
TIME Temp Definition
°C
Dew Point Definition
°C
Rel Hum Definition
%
Wind Dir Definition
10's deg

Wind Spd Definition
km/h
Visibility Definition
km
Stn Press Definition
kPa
Hmdx Definition


Wind Chill Definition


Weather Definition


00:00 6.4 5.9 96 19 4   100.97     LegendNANA
01:00 5.7 5.5 98 17 2   101.01     LegendNANA
02:00 5.6 5.3 98 20 2   101.06     LegendNANA
03:00 6.7 6.3 97 20 6   101.09     LegendNANA
04:00 5.8 5.3 96 17 2   101.10     LegendNANA
05:00 5.1 4.9 98 18 4   101.09     LegendNANA
06:00 5.7 5.4 98 19 4   101.08     LegendNANA
07:00 6.0 5.5 97 17 4   101.10     LegendNANA
08:00 5.4 4.7 95 16 4   101.11     LegendNANA
09:00 5.7 5.3 97   0   101.13     LegendNANA
10:00 6.8 6.3 97 19 4   101.14     LegendNANA
11:00 9.1 6.8 85 19 4   101.11     LegendNANA
12:00 8.3 4.7 78 21 5   101.06     LegendNANA
13:00 7.8 5.4 85 20 2   101.03     LegendNANA
14:00 7.2 5.1 87 19 4   100.99     LegendNANA
15:00 7.0 5.7 91 19 4   100.98     LegendNANA
16:00 6.8 5.2 90 19 4   100.98     LegendNANA
17:00 5.5 4.5 93 21 2   100.96     LegendNANA
18:00 4.4 4.0 97 17 3   100.91     LegendNANA
19:00 3.6 3.4 98 21 4   100.88     LegendNANA
20:00 4.0 3.9 99 24 5   100.86     LegendNANA
21:00 4.1 3.9 99 25 4   100.86     LegendNANA
22:00 4.8 4.6 99 26 3   100.88     LegendNANA
23:00 5.0 4.6 98 26 5   100.89     LegendNANA

Notes on Data Quality.

Legend

  • E = Estimated
  • M = Missing
  • NA = Not Available
Date modified: